Tracking 27402 objects as of 2-Jun-2023
HD Live streaming from Space Station
objects crossing your sky now

TELSTAR 302

Track TELSTAR 302 now!
TELSTAR 302 is classified as:


NORAD ID: 15237
Int'l Code: 1984-093D
Perigee: 35,896.9 km
Apogee: 35,963.3 km
Inclination: 14.7 °
Period: 1,443.1 minutes
Semi major axis: 42301 km
RCS: 4.6276 m2 (large)
Launch date: August 30, 1984
Source: United States (US)
Launch site: AIR FORCE EASTERN TEST RANGE (AFETR)
Your satellite tracking list
Your tracking list is empty




NASA's NSSDC Master Catalog

Two Line Element Set (TLE):
1 15237U 84093D   23152.33562264 -.00000266  00000-0  00000+0 0  9990
2 15237  14.7307 353.7882 0007850 113.0226  56.6632  0.99787459113622
Source of the keplerian elements: AFSPC